Tracking 29933 objects as of 3-Dec-2024
HD Live streaming from Space Station
objects crossing your sky now

SKYKRAFT-3

Track SKYKRAFT-3 now!
10-day predictions


NORAD ID: 56229
Int'l Code: 2023-084BN
Perigee: 465.9 km
Apogee: 476.0 km
Inclination: 97.6 °
Period: 93.9 minutes
Semi major axis: 6841 km
RCS: Unknown
Launch date: June 12, 2023
Source: Australia (AUS)
Launch site: AIR FORCE WESTERN TEST RANGE (AFWTR)
Your satellite tracking list
Your tracking list is empty




NASA's NSSDC Master Catalog

Two Line Element Set (TLE):
1 56229U 23084BN  24337.78760569  .00036670  00000-0  11113-2 0  9999
2 56229  97.5561  98.8488 0007435 135.8606 224.3230 15.34027049 81888
Source of the keplerian elements: AFSPC